Date String (YYYY-MM-DD hh:mm:ss) UTC,Instrument flags,Ambient pressure (hPa),Sample flow (lpm),Bypass flow (lpm),Sample temperature (°C),Ambient temperature (°C),ASC tube jacket temperature (°C),LED temperature (°C),Box temperature (°C),Sample RH (%),Span deviation,Mass concentration (μg/m³),Mass concentration (μg/m³),Mass concentration (μg/m³)
DateTimeUTC,F1_M11,P_M11,Q1_M11,Q2_M11,T1_M11,T2_M11,T3_M11,T4_M11,T5_M11,U1_M11,ZSPAN_M11,X0_M11,X2_M11,X1_M11
2022-05-19 22:00:00,,0808.8,5.01,0.00,29.3,27.2,00.0,38.1,31.0,09.3,0000.0,0015.36,0003.62,0002.03
2022-05-19 22:01:00,,0808.6,4.99,0.00,29.3,27.1,00.0,38.1,31.0,09.2,0000.0,0014.71,0003.63,0002.02
2022-05-19 22:02:00,,0808.7,5.00,0.00,29.3,27.2,00.0,38.1,31.0,09.2,0000.0,0014.70,0003.66,0002.01
2022-05-19 22:03:00,,0808.6,5.00,0.00,29.2,27.3,00.0,38.1,31.0,09.6,0000.0,0014.71,0003.66,0001.99
2022-05-19 22:04:00,,0808.8,4.99,0.00,29.2,27.5,00.0,38.1,31.1,09.6,0000.0,0014.53,0003.65,0002.00
2022-05-19 22:05:00,,0808.7,4.99,0.00,29.3,27.7,00.0,38.1,31.1,09.9,0000.0,0014.47,0003.65,0001.99
2022-05-19 22:06:00,,0808.7,4.99,0.00,29.3,27.9,00.0,38.1,31.2,09.2,0000.0,0014.07,0003.62,0001.97
2022-05-19 22:07:00,,0808.6,5.01,0.00,29.3,28.1,00.0,38.1,31.2,09.2,0000.0,0013.86,0003.59,0001.96
2022-05-19 22:08:00,,0808.5,4.99,0.00,29.3,28.2,00.0,38.1,31.3,08.9,0000.0,0012.61,0003.52,0001.92
2022-05-19 22:09:00,,0808.5,5.00,0.00,29.4,28.4,00.0,38.2,31.4,09.3,0000.0,0011.51,0003.50,0001.90
2022-05-19 22:10:00,,0808.6,5.00,0.00,29.4,28.5,00.0,38.2,31.4,09.6,0000.0,0010.89,0003.51,0001.91
2022-05-19 22:11:00,,0808.6,4.99,0.00,29.4,28.2,00.0,38.1,31.3,09.5,0000.0,0010.24,0003.56,0001.92
2022-05-19 22:12:00,,0808.7,5.00,0.00,29.4,27.4,00.0,38.1,31.1,09.5,0000.0,0009.63,0003.55,0001.91
2022-05-19 22:13:00,,0808.5,5.01,0.00,29.3,27.1,00.0,38.1,31.0,09.2,0000.0,0010.14,0003.55,0001.89
2022-05-19 22:14:00,,0808.4,5.00,0.00,29.3,27.1,00.0,38.1,31.0,09.2,0000.0,0010.54,0003.56,0001.89
2022-05-19 22:15:00,,0808.5,5.01,0.00,29.2,27.3,00.0,38.1,31.0,09.4,0000.0,0011.31,0003.57,0001.87
2022-05-19 22:16:00,,0808.4,5.00,0.00,29.2,27.5,00.0,38.1,31.1,09.9,0000.0,0011.59,0003.60,0001.86
2022-05-19 22:17:00,,0808.6,4.99,0.00,29.2,27.7,00.0,38.1,31.1,09.6,0000.0,0012.39,0003.61,0001.87
2022-05-19 22:18:00,,0808.4,5.02,0.00,29.3,27.9,00.0,38.1,31.2,09.6,0000.0,0013.76,0003.61,0001.87
2022-05-19 22:19:00,,0808.2,5.00,0.00,29.3,28.0,00.0,38.1,31.2,09.2,0000.0,0015.69,0003.59,0001.86
2022-05-19 22:20:00,,0808.2,4.99,0.00,29.3,28.2,00.0,38.1,31.3,09.3,0000.0,0017.15,0003.59,0001.87
2022-05-19 22:21:00,,0808.4,5.00,0.00,29.4,28.4,00.0,38.1,31.3,09.1,0000.0,0016.98,0003.58,0001.85
2022-05-19 22:22:00,,0808.2,5.00,0.00,29.4,28.5,00.0,38.2,31.4,09.0,0000.0,0016.71,0003.57,0001.84
2022-05-19 22:23:00,,0808.2,5.00,0.00,29.4,28.3,00.0,38.2,31.4,09.3,0000.0,0016.58,0003.58,0001.85
2022-05-19 22:24:00,,0808.0,5.01,0.00,29.4,27.5,00.0,38.1,31.1,09.5,0000.0,0016.38,0003.57,0001.86
2022-05-19 22:25:00,,0808.1,5.00,0.00,29.3,27.0,00.0,38.1,31.0,09.1,0000.0,0017.26,0003.58,0001.87
2022-05-19 22:26:00,,0808.1,5.00,0.00,29.3,27.1,00.0,38.1,31.0,09.4,0000.0,0016.50,0003.56,0001.85
2022-05-19 22:27:00,,0808.3,5.01,0.00,29.2,27.2,00.0,38.1,31.0,09.3,0000.0,0016.26,0003.54,0001.85
2022-05-19 22:28:00,,0808.2,5.01,0.00,29.2,27.4,00.0,38.1,31.0,09.2,0000.0,0016.60,0003.57,0001.84
2022-05-19 22:29:00,,0808.1,5.01,0.00,29.2,27.6,00.0,38.1,31.1,09.1,0000.0,0015.85,0003.65,0001.85
2022-05-19 22:30:00,,0808.2,5.00,0.00,29.3,27.8,00.0,38.1,31.2,09.4,0000.0,0013.65,0003.67,0001.86
2022-05-19 22:31:00,,0808.2,4.99,0.00,29.3,28.0,00.0,38.1,31.2,09.5,0000.0,0012.53,0003.67,0001.86
2022-05-19 22:32:00,,0808.0,5.00,0.00,29.3,28.2,00.0,38.1,31.3,09.7,0000.0,0012.60,0003.65,0001.86
2022-05-19 22:33:00,,0807.8,5.00,0.00,29.4,28.3,00.0,38.1,31.3,09.4,0000.0,0013.31,0003.61,0001.87
2022-05-19 22:34:00,,0807.9,5.02,0.00,29.4,28.5,00.0,38.2,31.4,09.5,0000.0,0013.31,0003.64,0001.88
2022-05-19 22:35:00,,0808.0,5.00,0.00,29.5,28.5,00.0,38.2,31.4,09.2,0000.0,0013.56,0003.67,0001.88
2022-05-19 22:36:00,,0808.1,5.00,0.00,29.4,27.7,00.0,38.1,31.1,09.3,0000.0,0013.19,0003.70,0001.88
2022-05-19 22:37:00,,0808.2,5.00,0.00,29.3,27.1,00.0,38.1,30.9,09.2,0000.0,0013.81,0003.76,0001.90
2022-05-19 22:38:00,,0808.3,5.00,0.00,29.3,27.0,00.0,38.1,30.9,09.4,0000.0,0013.77,0003.77,0001.91
2022-05-19 22:39:00,,0808.2,5.00,0.00,29.2,27.1,00.0,38.1,30.9,09.6,0000.0,0013.16,0003.79,0001.91
2022-05-19 22:40:00,,0808.2,5.00,0.00,29.2,27.3,00.0,38.0,31.0,09.8,0000.0,0012.15,0003.71,0001.90
2022-05-19 22:41:00,,0808.2,4.98,0.00,29.2,27.5,00.0,38.0,31.0,09.6,0000.0,0012.54,0003.70,0001.91
2022-05-19 22:42:00,,0807.9,5.00,0.00,29.2,27.7,00.0,38.1,31.1,09.1,0000.0,0012.27,0003.67,0001.92
2022-05-19 22:43:00,,0807.9,5.00,0.00,29.3,27.9,00.0,38.1,31.2,09.0,0000.0,0011.79,0003.68,0001.93
2022-05-19 22:44:00,,0808.0,4.99,0.00,29.3,28.1,00.0,38.1,31.2,09.2,0000.0,0011.26,0003.70,0001.91
2022-05-19 22:45:00,,0808.2,5.00,0.00,29.3,28.2,00.0,38.1,31.3,09.5,0000.0,0011.35,0003.66,0001.90
2022-05-19 22:46:00,,0808.2,5.00,0.00,29.4,28.4,00.0,38.1,31.3,09.2,0000.0,0010.80,0003.63,0001.89
2022-05-19 22:47:00,,0808.0,5.01,0.00,29.4,28.5,00.0,38.1,31.4,09.5,0000.0,0009.75,0003.57,0001.88
2022-05-19 22:48:00,,0808.0,5.00,0.00,29.4,27.9,00.0,38.1,31.3,09.8,0000.0,0008.98,0003.52,0001.86
2022-05-19 22:49:00,,0807.9,5.00,0.00,29.3,27.1,00.0,38.1,31.0,09.6,0000.0,0009.01,0003.53,0001.85
2022-05-19 22:50:00,,0807.8,4.99,0.00,29.3,27.0,00.0,38.0,30.9,09.4,0000.0,0008.98,0003.50,0001.85
2022-05-19 22:51:00,,0807.8,5.00,0.00,29.2,27.0,00.0,38.0,30.9,09.5,0000.0,0009.27,0003.55,0001.87
2022-05-19 22:52:00,,0807.8,5.00,0.00,29.2,27.2,00.0,38.0,31.0,09.3,0000.0,0009.56,0003.62,0001.87
2022-05-19 22:53:00,,0807.7,5.00,0.00,29.2,27.4,00.0,38.0,31.0,09.3,0000.0,0009.67,0003.63,0001.87
2022-05-19 22:54:00,,0807.7,5.01,0.00,29.2,27.6,00.0,38.1,31.1,09.4,0000.0,0009.95,0003.64,0001.87
2022-05-19 22:55:00,,0807.7,5.00,0.00,29.2,27.8,00.0,38.1,31.1,08.8,0000.0,0010.87,0003.63,0001.88
2022-05-19 22:56:00,,0807.5,5.00,0.00,29.3,28.0,00.0,38.1,31.2,09.1,0000.0,0010.87,0003.62,0001.89
2022-05-19 22:57:00,,0807.6,5.00,0.00,29.3,28.2,00.0,38.1,31.3,09.1,0000.0,0012.07,0003.60,0001.89
2022-05-19 22:58:00,,0807.5,5.00,0.00,29.4,28.3,00.0,38.1,31.3,09.2,0000.0,0012.78,0003.65,0001.91
2022-05-19 22:59:00,,0807.7,5.00,0.00,29.4,28.4,00.0,38.1,31.4,09.6,0000.0,0013.15,0003.65,0001.93
